Location: Poigny-la-Forêt
(48.6876°N, 1.7701°E)
Time: 09:32:49
(UTC+02:00)

Envisat - Pass Details

Date: 26 March 2019
Orbit: 764 x 766 km, 98.1° (Epoch: 17 October)

Event Time Altitude Azimuth Distance (km) Brightness Sun altitude
Rises 20:30:26 0° 202° (SSW) 3,218 6.3 -13.1°
Reaches altitude 10° 20:33:11 10° 217° (SW) 2,298 5.7 -13.5°
Maximum altitude 20:37:09 23° 269° (W) 1,597 5.5 -14.1°
Drops below altitude 10° 20:41:09 10° 320° (NW) 2,312 6.5 -14.8°
Sets 20:43:57 0° 335° (NNW) 3,244 7.0 -15.2°
